Location: Petrozavodsk
(61.7955°N, 34.3748°E)
Time: 13:08:15
(UTC+03:00)

BlueWalker 3 - Pass Details

Date: 01 April 2023
Orbit: 493 x 513 km, 53.2° (Epoch: 09 June)

Event Time Altitude Azimuth Distance (km) Brightness Sun altitude
Rises 21:48:59 0° 243° (WSW) 2,619 5.8 -15.4°
Reaches altitude 10° 21:51:29 10° 229° (SW) 1,729 4.7 -15.6°
Enters shadow 21:54:29 23° 179° (S) 1,112 3.3 -15.8°
